Weather History for Hamilton, OH

Change the Weather History Date:

Thursday, February 21, 2013

  Actual Average (KCVG) Record (KCVG)
Temperature  
Mean Temperature 24 °F 36 °F  
Max Temperature 30 °F 45 °F 70 °F (1930)
Min Temperature 19 °F 27 °F -10 °F (1885)
Degree Days  
Heating Degree Days 40 29  
Month to date heating degree days 660  
Since 1 July heating degree days 3632  
Cooling Degree Days 0 0  
Month to date cooling degree days 0  
Year to date cooling degree days 0  
Moisture  
Dew Point 17 °F    
Average Humidity 68    
Maximum Humidity 85    
Minimum Humidity 59    
Precipitation  
Precipitation 0.10 in 0.10 in 2.73 in (1874)
Month to date precipitation 2.12  
Year to date precipitation 5.12  
Snow  
Snow 0.00 in 0.20 in 5.00 in (1893)
Month to date snowfall 5.2  
Since 1 July snowfall 17.3  
Snow Depth -    
Sea Level Pressure  
Sea Level Pressure 30.29 in    
Wind  
Wind Speed 7 mph (NE)    
Max Wind Speed 16 mph    
Max Gust Speed 24 mph    
Visibility 10 miles    
Events Rain    
T = Trace of Precipitation, MM = Missing Value Source: NWS Daily Summary

Daily Weather History Graph

Daily Weather History Graph

Search for Another Location

Airport:

Trip Planner

Search our weather history database for the weather conditions in past years. The results will help you decide how hot, cold, wet, or windy it might be!

Date:

Astronomy

Feb. 21, 2013 Rise Set
Actual Time 7:21 AM EST 6:22 PM EST
Civil Twilight 6:54 AM EST 6:49 PM EST
Nautical Twilight 6:23 AM EST 7:20 PM EST
Astronomical Twilight 5:52 AM EST 7:51 PM EST
Moon 2:36 PM EST (2/21) 4:24 AM EST (2/21)
Length of Visible Light 11h 54m
Length of Day
11h 00m
Waxing Gibbous, 83% of the Moon is Illuminated
Feb 21
Waxing Gibbous
Feb 25
Full
Mar 4
Last Quarter
Mar 11
New
Mar 19
First Quarter

Hourly Weather History & Observations

Time (EST) Temp. Windchill Dew Point Humidity Pressure Visibility Wind Dir Wind Speed Gust Speed Precip Events Conditions
12:04 AM 21.2 °F 13.6 °F 10.4 °F 63% 30.31 in 10.0 mi NNE 5.8 mph - N/A   Scattered Clouds
12:29 AM 19.4 °F 14.3 °F 12.2 °F 74% 30.32 in 10.0 mi NNE 3.5 mph - N/A   Mostly Cloudy
1:53 AM 21.9 °F 15.7 °F 12.9 °F 68% 30.35 in 10.0 mi NW 4.6 mph - N/A   Overcast
2:53 AM 21.9 °F 17.2 °F 12.9 °F 68% 30.35 in 10.0 mi NNW 3.5 mph - N/A   Overcast
3:53 AM 21.9 °F 14.5 °F 12.9 °F 68% 30.33 in 10.0 mi NNW 5.8 mph - N/A   Overcast
4:53 AM 23.0 °F 14.7 °F 14.0 °F 68% 30.35 in 10.0 mi NNW 6.9 mph - N/A   Overcast
5:53 AM 23.0 °F 17.0 °F 15.1 °F 72% 30.35 in 10.0 mi North 4.6 mph - N/A   Overcast
6:53 AM 23.0 °F 18.4 °F 15.1 °F 72% 30.38 in 10.0 mi NNE 3.5 mph - N/A   Overcast
7:53 AM 24.1 °F 17.0 °F 15.1 °F 69% 30.39 in 10.0 mi North 5.8 mph - N/A   Overcast
8:53 AM 24.1 °F 18.2 °F 15.1 °F 69% 30.40 in 10.0 mi North 4.6 mph - N/A   Overcast
9:53 AM 25.0 °F 19.3 °F 16.0 °F 69% 30.39 in 10.0 mi NE 4.6 mph - N/A   Overcast
10:53 AM 26.1 °F 16.8 °F 16.0 °F 66% 30.38 in 10.0 mi East 9.2 mph - N/A   Overcast
11:53 AM 27.0 °F 18.0 °F 17.1 °F 66% 30.36 in 10.0 mi ENE 9.2 mph - N/A   Overcast
12:53 PM 28.9 °F 21.9 °F 18.0 °F 64% 30.35 in 10.0 mi East 6.9 mph - N/A   Overcast
1:53 PM 30.9 °F 20.7 °F 19.0 °F 61% 30.28 in 10.0 mi ENE 13.8 mph - N/A   Overcast
2:43 PM 30.2 °F 21.3 °F 17.6 °F 60% 30.25 in 10.0 mi ESE 10.4 mph 16.1 mph N/A   Scattered Clouds
2:53 PM 30.9 °F 22.2 °F 18.0 °F 59% 30.25 in 10.0 mi ESE 10.4 mph - N/A   Partly Cloudy
3:53 PM 30.9 °F 20.7 °F 19.0 °F 61% 30.24 in 10.0 mi East 13.8 mph - N/A   Clear
4:53 PM 30.0 °F 20.0 °F 18.0 °F 61% 30.27 in 10.0 mi ENE 12.7 mph - N/A   Clear
5:53 PM 28.9 °F 18.2 °F 19.0 °F 67% 30.23 in 10.0 mi ENE 13.8 mph - N/A   Clear
6:53 PM 30.0 °F 20.5 °F 19.9 °F 66% 30.24 in 10.0 mi East 11.5 mph - N/A   Partly Cloudy
7:53 PM 30.0 °F 21.7 °F 19.9 °F 66% 30.24 in 10.0 mi East 9.2 mph - N/A   Overcast
8:53 PM 30.0 °F 22.4 °F 19.9 °F 66% 30.25 in 9.0 mi East 8.1 mph - 0.00 in   Overcast
9:53 PM 28.9 °F 18.6 °F 23.0 °F 78% 30.21 in 8.0 mi East 12.7 mph - 0.03 in   Overcast
10:53 PM 28.9 °F 17.3 °F 24.1 °F 82% 30.12 in 8.0 mi East 16.1 mph 24.2 mph 0.04 in   Overcast
11:38 PM 30.2 °F 20.2 °F 24.8 °F 80% 30.07 in 6.0 mi East 12.7 mph - 0.01 in Rain Light Freezing Rain
11:53 PM 30.0 °F 22.4 °F 26.1 °F 85% 30.12 in 6.0 mi East 8.1 mph - 0.03 in Rain Light Freezing Rain